sat.trackr.live / text

‹ back to catalog

ABS-6

NORAD 25924 · 1999-053A

PAYLOAD ACTIVE UNKNOWN

§ Identity

Operator
Country
ABS
Launch date
1999-09-26
Launch site
TYMSC
Launch vehicle
Mass (kg)
RCS (m²)
39.81

Purposes: comms

External: N2YO · Heavens-Above · Gunter

§ Orbital elements

Epoch: 2026-05-25T04:54:38.767104Z

Period
1,436.06 min
Inclination
0.0146°
Eccentricity
0.0003960
Mean motion
1.00274704 rev/d
Perigee alt
35,769.1 km
Apogee alt
35,802.5 km
Semi-major
42,163.9 km
B*
0.0000e+0
RAAN
304.1915°
Arg perigee
133.3002°
Mean anomaly
37.9833°
Rev number
9,761

§ Raw data

ABS-61 25924U 99053A   26145.20461536 -.00000121  00000+0  00000+0 0  99962 25924   0.0146 304.1915 0003960 133.3002  37.9833  1.00274704 97619

JSON: /api/v1/satellites/25924 · /tle

For live sub-satellite position, see the globe view (requires WebGL).

§ Visibility from observer

Set your observer location to see the next 7 days of passes ≥ 10°. The values pass through the URL so the page stays shareable.

No JS? Fill the form by hand. The geolocation button needs JavaScript.